Regional Weather Roundup
Issued by NWS

Home | Current Version | Previous Version | Text Only | Print | Product List | Glossary On
Versions: 1 2 3 4 5 6 7 8 9 10 11 12 13 14 15 16 17 18 19 20 21 22 23 24 25 26 27 28 29 30 31 32 33 34 35 36 37 38 39 40 41 42 43 44 45 46 47 48 49 50
000
ASUS42 KKEY 291310
RWRKEY

FLORIDA REGIONAL WEATHER ROUNDUP FOR THE FLORIDA KEYS
NATIONAL WEATHER SERVICE KEY WEST FLORIDA
900 AM EDT SUN MAR 29 2015

...SOUTH FLORIDA AND THE KEYS...

CITY           SKY/WX    TMP DP  RH WIND       PRES   REMARKS
FORT MYERS     SUNNY     58  41  53 NE13      30.31R
SW REGIONAL AP SUNNY     57  43  59 NE9       30.31R
NAPLES         SUNNY     60  41  49 N10       30.29R
MIAMI          MOSUNNY   61  43  51 N7        30.28R
WEST KENDALL   SUNNY     61  47  59 N9        30.28R
HOMESTEAD      MOSUNNY   60  49  68 N10       30.27R
MARATHON       SUNNY     63  48  58 N12G22    30.27R
BOCA CHICA NAS PTSUNNY   69  54  58 NE13G21   30.26R
KEY WEST INTL  SUNNY     69  54  58 NE15G22   30.26R

...INTERNATIONAL WEATHER...

CITY           SKY/WX    TMP DP  RH WIND       PRES   REMARKS
NASSAU BAHAMAS NOT AVBL
CANCUN MEXICO  PTSUNNY   75  63  64 NE9       30.17R
COZUMEL MEXICO PTSUNNY   72  66  83 E13       30.16R

ADJACENT COASTAL WATERS...

STATION/POSITION TIME  SKY/WX   TEMP    WIND        PRES    WAVE
                                AIR SEA DIR/SP/G            HT/PER
                 (UTC)          (F)     (DEG/KT/KT) (MB)    (FT/S)
PULASKI SHOAL LI 1200            69      30/ 20/ 22 1023.6R
SAND KEY         1250            69      40/ 19/ 24 1024.2R
SOMBRERO KEY     1300            63      20/ 19/ 21 1025.0R
LONG KEY         1300            62 72   20/ 18/ 21 1025.7R
MOLASSES REEF    1300            62 75   20/ 15/ 17 1024.5R
FOWEY ROCKS      NOT AVBL

$$



USA.gov is the U.S. government's official web portal to all federal, state and local government web resources and services.